• In Netherlands
  • List of Countries
  • For 7 days
  • Water Temperature
  • Satellite Maps
  • Weather Map
  • Weather Widgets
  • user-avatar
    Login

    Hourly Weather Rawson

    Today, 17 August, Thursday

    Time Temperature Precipitation Wind Pressure Humidity
    00:00 +12°C° 0 mm 7 mps 752 mmHg 62%
    01:00 +11°C° 0 mm 7 mps 752 mmHg 64%
    02:00 +11°C° 0 mm 7 mps 752 mmHg 71%
    03:00 +10°C° 0 mm 7 mps 753 mmHg 72%
    04:00 +10°C° 0 mm 6 mps 753 mmHg 72%
    05:00 +10°C° 0 mm 6 mps 753 mmHg 73%
    06:00 +9°C° 0 mm 6 mps 754 mmHg 74%
    07:00 +9°C° 0 mm 5 mps 755 mmHg 75%
    08:00 +8°C° 0 mm 5 mps 755 mmHg 76%
    09:00 +10°C° 0 mm 4 mps 756 mmHg 71%
    10:00 +10°C° 0 mm 4 mps 756 mmHg 65%
    11:00 +11°C° 0 mm 4 mps 757 mmHg 59%
    12:00 +11°C° 0 mm 4 mps 757 mmHg 58%
    13:00 +11°C° 0 mm 4 mps 756 mmHg 57%
    14:00 +11°C° 0 mm 3 mps 756 mmHg 57%
    15:00 +11°C° 0 mm 4 mps 756 mmHg 60%
    16:00 +10°C° 0 mm 5 mps 755 mmHg 62%
    17:00 +9°C° 0 mm 6 mps 755 mmHg 65%
    18:00 +9°C° 0.6 mm 7 mps 754 mmHg 69%
    19:00 +9°C° 0.6 mm 8 mps 753 mmHg 74%
    20:00 +7°C° 0.6 mm 9 mps 752 mmHg 78%
    21:00 +8°C° 1.1 mm 10 mps 751 mmHg 80%
    22:00 +8°C° 1.1 mm 11 mps 750 mmHg 82%
    23:00 +8°C° 1.1 mm 12 mps 749 mmHg 84%

    Tomorrow, 18 August, Friday

    Time Temperature Precipitation Wind Pressure Humidity
    00:00 +10°C° 0.1 mm 12 mps 747 mmHg 77%
    01:00 +12°C° 0.1 mm 12 mps 746 mmHg 69%
    02:00 +13°C° 0.1 mm 12 mps 745 mmHg 61%
    03:00 +13°C° 0.1 mm 11 mps 744 mmHg 59%
    04:00 +13°C° 0.1 mm 11 mps 744 mmHg 57%
    05:00 +13°C° 0.1 mm 10 mps 743 mmHg 55%
    06:00 +12°C° 0 mm 10 mps 744 mmHg 55%
    07:00 +11°C° 0 mm 9 mps 744 mmHg 54%
    08:00 +11°C° 0 mm 8 mps 744 mmHg 53%
    09:00 +12°C° 0 mm 11 mps 744 mmHg 45%
    10:00 +13°C° 0 mm 13 mps 744 mmHg 36%
    11:00 +14°C° 0 mm 15 mps 744 mmHg 27%
    12:00 +14°C° 0 mm 15 mps 744 mmHg 27%
    13:00 +14°C° 0 mm 15 mps 744 mmHg 27%
    14:00 +14°C° 0 mm 15 mps 744 mmHg 26%
    15:00 +14°C° 0 mm 14 mps 744 mmHg 27%
    16:00 +13°C° 0 mm 12 mps 745 mmHg 27%
    17:00 +13°C° 0 mm 11 mps 745 mmHg 27%
    18:00 +12°C° 0 mm 10 mps 746 mmHg 30%
    19:00 +10°C° 0 mm 9 mps 747 mmHg 33%
    20:00 +9°C° 0 mm 8 mps 747 mmHg 36%
    21:00 +9°C° 0 mm 8 mps 748 mmHg 38%
    22:00 +7°C° 0 mm 8 mps 748 mmHg 41%
    23:00 +7°C° 0 mm 8 mps 748 mmHg 43%

    Day after tomorrow, 19 August, Saturday

    Time Temperature Precipitation Wind Pressure Humidity
    00:00 +6°C° 0.1 mm 8 mps 749 mmHg 47%
    01:00 +6°C° 0.1 mm 9 mps 749 mmHg 52%
    02:00 +6°C° 0.1 mm 9 mps 749 mmHg 56%
    03:00 +6°C° 0 mm 9 mps 749 mmHg 54%
    04:00 +5°C° 0 mm 10 mps 749 mmHg 53%
    05:00 +3°C° 0 mm 10 mps 749 mmHg 52%
    06:00 +4°C° 0 mm 11 mps 750 mmHg 50%
    07:00 +4°C° 0 mm 12 mps 750 mmHg 48%
    08:00 +4°C° 0 mm 14 mps 751 mmHg 46%
    09:00 +5°C° 0 mm 15 mps 752 mmHg 41%
    10:00 +5°C° 0 mm 15 mps 752 mmHg 37%
    11:00 +6°C° 0 mm 16 mps 753 mmHg 32%
    12:00 +6°C° 0 mm 16 mps 753 mmHg 32%
    13:00 +8°C° 0 mm 15 mps 754 mmHg 32%
    14:00 +8°C° 0 mm 14 mps 755 mmHg 32%
    15:00 +8°C° 0 mm 13 mps 756 mmHg 31%
    16:00 +7°C° 0 mm 13 mps 756 mmHg 30%
    17:00 +7°C° 0 mm 12 mps 757 mmHg 29%
    18:00 +6°C° 0 mm 11 mps 758 mmHg 32%
    19:00 +6°C° 0 mm 11 mps 759 mmHg 35%
    20:00 +5°C° 0 mm 10 mps 761 mmHg 37%
    21:00 +3°C° 0 mm 10 mps 761 mmHg 40%
    22:00 +3°C° 0 mm 9 mps 762 mmHg 42%
    23:00 +2°C° 0 mm 8 mps 762 mmHg 45%

    20 August, Sunday

    Time Temperature Precipitation Wind Pressure Humidity
    00:00 +2°C° 0 mm 8 mps 763 mmHg 47%
    01:00 +3°C° 0 mm 7 mps 763 mmHg 48%
    02:00 +2°C° 0 mm 7 mps 763 mmHg 50%
    03:00 +2°C° 0 mm 7 mps 763 mmHg 52%
    04:00 +2°C° 0 mm 7 mps 763 mmHg 54%
    05:00 +2°C° 0 mm 7 mps 763 mmHg 56%
    06:00 +2°C° 0 mm 7 mps 763 mmHg 54%
    07:00 +2°C° 0 mm 7 mps 763 mmHg 53%
    08:00 +3°C° 0 mm 7 mps 763 mmHg 51%
    09:00 +5°C° 0 mm 7 mps 763 mmHg 44%
    10:00 +8°C° 0 mm 7 mps 762 mmHg 38%
    11:00 +10°C° 0 mm 8 mps 762 mmHg 32%
    12:00 +11°C° 0 mm 8 mps 761 mmHg 29%
    13:00 +12°C° 0 mm 8 mps 760 mmHg 27%
    14:00 +13°C° 0 mm 8 mps 759 mmHg 25%
    15:00 +13°C° 0 mm 8 mps 758 mmHg 26%
    16:00 +13°C° 0 mm 8 mps 757 mmHg 27%
    17:00 +13°C° 0 mm 8 mps 756 mmHg 28%
    18:00 +12°C° 0 mm 7 mps 756 mmHg 32%
    19:00 +12°C° 0 mm 7 mps 755 mmHg 35%
    20:00 +11°C° 0 mm 7 mps 755 mmHg 39%
    21:00 +11°C° 0 mm 8 mps 755 mmHg 40%
    22:00 +11°C° 0 mm 8 mps 754 mmHg 41%
    23:00 +10°C° 0 mm 9 mps 754 mmHg 42%

    21 August, Monday

    Time Temperature Precipitation Wind Pressure Humidity
    00:00 +10°C° 0 mm 8 mps 753 mmHg 42%
    01:00 +10°C° 0 mm 8 mps 753 mmHg 42%
    02:00 +10°C° 0 mm 7 mps 753 mmHg 42%
    03:00 +10°C° 0 mm 7 mps 752 mmHg 40%
    04:00 +10°C° 0 mm 7 mps 752 mmHg 38%
    05:00 +11°C° 0 mm 7 mps 751 mmHg 36%
    06:00 +11°C° 0 mm 8 mps 751 mmHg 35%
    07:00 +11°C° 0 mm 8 mps 750 mmHg 33%
    08:00 +11°C° 0 mm 9 mps 750 mmHg 32%
    09:00 +13°C° 0 mm 10 mps 750 mmHg 27%
    10:00 +17°C° 0 mm 12 mps 749 mmHg 22%
    11:00 +19°C° 0 mm 13 mps 749 mmHg 18%
    12:00 +20°C° 0 mm 13 mps 749 mmHg 16%
    13:00 +23°C° 0 mm 12 mps 748 mmHg 15%
    14:00 +24°C° 0 mm 12 mps 748 mmHg 14%
    15:00 +23°C° 0 mm 11 mps 748 mmHg 15%
    16:00 +23°C° 0 mm 11 mps 747 mmHg 16%
    17:00 +22°C° 0 mm 10 mps 747 mmHg 16%
    18:00 +22°C° 0 mm 11 mps 747 mmHg 17%
    19:00 +21°C° 0 mm 11 mps 746 mmHg 18%
    20:00 +21°C° 0 mm 11 mps 746 mmHg 19%
    21:00 +19°C° 0 mm 12 mps 745 mmHg 21%
    22:00 +19°C° 0 mm 12 mps 745 mmHg 23%
    23:00 +18°C° 0 mm 12 mps 744 mmHg 25%

    22 August, Tuesday

    Time Temperature Precipitation Wind Pressure Humidity
    00:00 +18°C° 0 mm 12 mps 743 mmHg 25%
    01:00 +18°C° 0 mm 12 mps 743 mmHg 25%
    02:00 +17°C° 0 mm 11 mps 742 mmHg 25%
    03:00 +17°C° 0 mm 11 mps 742 mmHg 25%
    04:00 +17°C° 0 mm 12 mps 741 mmHg 25%
    05:00 +15°C° 0 mm 12 mps 741 mmHg 25%
    06:00 +17°C° 0 mm 12 mps 741 mmHg 29%
    07:00 +17°C° 0 mm 12 mps 740 mmHg 32%
    08:00 +17°C° 0 mm 12 mps 740 mmHg 36%
    09:00 +18°C° 0 mm 13 mps 740 mmHg 33%
    10:00 +19°C° 0 mm 14 mps 741 mmHg 31%
    11:00 +20°C° 0 mm 15 mps 741 mmHg 28%
    12:00 +19°C° 0 mm 16 mps 741 mmHg 25%
    13:00 +18°C° 0 mm 17 mps 741 mmHg 22%
    14:00 +18°C° 0 mm 18 mps 741 mmHg 19%
    15:00 +16°C° 0 mm 17 mps 742 mmHg 20%
    16:00 +14°C° 0 mm 16 mps 743 mmHg 21%
    17:00 +13°C° 0 mm 15 mps 744 mmHg 22%
    18:00 +12°C° 0 mm 13 mps 745 mmHg 24%
    19:00 +11°C° 0 mm 11 mps 746 mmHg 27%
    20:00 +9°C° 0 mm 10 mps 747 mmHg 29%
    21:00 +8°C° 0 mm 9 mps 748 mmHg 32%
    22:00 +8°C° 0 mm 9 mps 749 mmHg 35%
    23:00 +7°C° 0 mm 8 mps 750 mmHg 38%
    Show more